Hillsdale, MI

5:11 PM EDT on June 17, 2019 (GMT -0400)
Hillsdale Municipal

Weather History for KJYM - May, 2019

Change the Weather History Date:

Saturday, May 18, 2019

  Actual Average Record
Temperature  
Mean Temperature 64 °F -  
Max Temperature 81 °F 72 °F 90 °F (1962)
Min Temperature 47 °F 45 °F 27 °F (1973)
Degree Days  
Heating Degree Days 1    
Growing Degree Days 14 (Base 50)    
Moisture  
Dew Point 54 °F    
Average Humidity 78    
Maximum Humidity 95    
Minimum Humidity 41    
Precipitation  
Precipitation 0.46 in - - ()
Sea Level Pressure  
Sea Level Pressure 29.90 in    
Wind  
Wind Speed 7 mph ()    
Max Wind Speed 13 mph    
Max Gust Speed 16 mph    
Visibility 9.2 miles    
Events Rain    
Averages and records for this station are not official NWS values.
T = Trace of Precipitation, MM = Missing Value Source: Averaged Metar Reports

Daily Weather History Graph

Daily Weather History Graph

Search for Another Location

Airport or City:

Astronomy

May. 18, 2019 Rise Set
Actual Time 6:15 AM EDT 8:54 PM EDT
Civil Twilight 5:43 AM EDT 9:26 PM EDT
Nautical Twilight 5:03 AM EDT 10:07 PM EDT
Astronomical Twilight 4:17 AM EDT 10:53 PM EDT
Moon 8:48 PM EDT (5/18) 6:23 AM EDT (5/18)
Length of Visible Light 15h 43m
Length of Day
14h 39m
Full, 100% of the Moon is Illuminated
May 18
Full
May 18
Full
May 26
Last Quarter
Jun 3
New
Jun 10
First Quarter

Hourly Weather History & Observations

Time (EDT) Temp. Heat Index Dew Point Humidity Pressure Visibility Wind Dir Wind Speed Gust Speed Precip Events Conditions
12:15 AM 54.7 °F - 50.0 °F 84% 29.96 in 10.0 mi ESE 5.8 mph - N/A   Overcast
12:35 AM 54.5 °F - 50.0 °F 85% 29.96 in 10.0 mi ESE 6.9 mph - N/A Rain Light Rain
12:36 AM 54.5 °F - 50.0 °F 85% 29.96 in 10.0 mi SE 6.9 mph - N/A Rain Light Rain
12:55 AM 54.5 °F - 49.6 °F 84% 29.96 in 10.0 mi ESE 4.6 mph - N/A Rain Light Rain
12:56 AM 54.5 °F - 49.6 °F 84% 29.97 in 10.0 mi ESE 5.8 mph - N/A Rain Light Rain
1:15 AM 54.1 °F - 50.0 °F 86% 29.96 in 10.0 mi ESE 6.9 mph - N/A   Overcast
1:16 AM 54.1 °F - 50.0 °F 86% 29.96 in 10.0 mi ESE 6.9 mph - N/A   Overcast
1:35 AM 54.0 °F - 50.0 °F 86% 29.96 in 10.0 mi ESE 9.2 mph - N/A Rain Light Rain
1:55 AM 53.2 °F - 50.2 °F 89% 29.96 in 7.0 mi SE 5.8 mph - 0.01 in Rain Rain
2:15 AM 52.9 °F - 50.2 °F 91% 29.96 in 5.0 mi SE 9.2 mph - 0.02 in Rain Rain
2:35 AM 52.3 °F - 50.0 °F 92% 29.94 in 5.0 mi ESE 9.2 mph - 0.07 in Rain Light Rain
2:36 AM 52.3 °F - 50.0 °F 92% 29.94 in 5.0 mi ESE 8.1 mph - 0.07 in Rain Light Rain
2:55 AM 52.0 °F - 49.8 °F 92% 29.94 in 5.0 mi ESE 10.4 mph - 0.13 in Rain Rain
2:56 AM 52.0 °F - 49.8 °F 92% 29.94 in 5.0 mi ESE 10.4 mph - 0.13 in Rain Rain
3:15 AM 51.8 °F - 49.5 °F 92% 29.93 in 5.0 mi ESE 10.4 mph - 0.03 in Rain Rain
3:16 AM 51.8 °F - 49.5 °F 92% 29.93 in 5.0 mi ESE 11.5 mph - 0.03 in Rain Rain
3:35 AM 51.4 °F - 49.6 °F 94% 29.93 in 5.0 mi SE 9.2 mph - 0.08 in Rain Rain
3:55 AM 51.1 °F - 49.5 °F 94% 29.94 in 5.0 mi ESE 6.9 mph - 0.20 in Rain Heavy Rain
3:56 AM 51.1 °F - 49.5 °F 94% 29.94 in 4.0 mi ESE 8.1 mph - 0.22 in Rain Heavy Rain
4:15 AM 50.9 °F - 49.1 °F 94% 29.93 in 5.0 mi East 8.1 mph - 0.03 in Rain Rain
4:16 AM 50.9 °F - 49.1 °F 94% 29.93 in 5.0 mi East 8.1 mph - 0.03 in Rain Rain
4:35 AM 50.9 °F - 48.9 °F 93% 29.94 in 10.0 mi ESE 10.4 mph - 0.03 in Rain Light Rain
4:36 AM 50.9 °F - 48.9 °F 93% 29.94 in 10.0 mi ESE 10.4 mph - 0.03 in Rain Light Rain
4:55 AM 50.5 °F - 48.7 °F 94% 29.94 in 7.0 mi SE 8.1 mph - 0.05 in Rain Rain
5:15 AM 50.2 °F - 48.6 °F 94% 29.93 in 7.0 mi ESE 6.9 mph - 0.02 in Rain Rain
5:35 AM 50.0 °F - 48.2 °F 94% 29.92 in 7.0 mi ESE 9.2 mph - 0.05 in Rain Light Rain
5:55 AM 49.8 °F - 48.2 °F 94% 29.92 in 10.0 mi ESE 11.5 mph - 0.05 in Rain Light Rain
5:56 AM 49.6 °F - 48.2 °F 95% 29.92 in 10.0 mi SE 11.5 mph - 0.05 in   Overcast
6:15 AM 49.6 °F - 48.2 °F 95% 29.97 in 10.0 mi North 8.1 mph - N/A   Overcast
6:16 AM 49.6 °F - 48.0 °F 94% 29.97 in 10.0 mi North 8.1 mph - N/A   Overcast
6:35 AM 48.4 °F - 46.4 °F 93% 29.96 in 10.0 mi East 9.2 mph - N/A   Overcast
6:55 AM 47.8 °F - 45.5 °F 92% 29.96 in 10.0 mi East 6.9 mph - N/A   Overcast
7:15 AM 47.7 °F - 45.1 °F 91% 29.96 in 10.0 mi East 9.2 mph - N/A   Overcast
7:35 AM 47.8 °F - 45.1 °F 90% 29.96 in 10.0 mi East 9.2 mph - N/A   Overcast
7:36 AM 47.8 °F - 45.3 °F 91% 29.96 in 10.0 mi East 9.2 mph - N/A   Overcast
7:55 AM 48.4 °F - 45.9 °F 91% 29.96 in 10.0 mi East 8.1 mph - N/A   Overcast
7:56 AM 48.4 °F - 45.9 °F 91% 29.96 in 10.0 mi East 8.1 mph - N/A   Overcast
8:15 AM 49.1 °F - 46.8 °F 92% 29.96 in 10.0 mi East 9.2 mph - N/A   Overcast
8:35 AM 49.3 °F - 46.9 °F 92% 29.96 in 10.0 mi East 10.4 mph - N/A   Overcast
8:55 AM 49.3 °F - 46.6 °F 90% 29.96 in 10.0 mi East 9.2 mph - N/A   Overcast
8:56 AM 49.3 °F - 46.6 °F 90% 29.96 in 10.0 mi East 9.2 mph - N/A   Overcast
9:15 AM 50.4 °F - 47.7 °F 90% 29.96 in 10.0 mi East 8.1 mph - N/A   Overcast
9:16 AM 50.5 °F - 47.7 °F 90% 29.96 in 10.0 mi East 9.2 mph - N/A   Overcast
9:35 AM 51.4 °F - 48.4 °F 89% 29.96 in 10.0 mi ESE 10.4 mph - N/A   Overcast
9:36 AM 51.4 °F - 48.4 °F 89% 29.95 in 10.0 mi ESE 10.4 mph - N/A   Overcast
9:55 AM 51.8 °F - 48.4 °F 88% 29.95 in 10.0 mi ESE 11.5 mph 16.1 mph N/A   Overcast
10:15 AM 52.7 °F - 49.5 °F 89% 29.95 in 10.0 mi ESE 10.4 mph - N/A   Overcast
10:16 AM 52.9 °F - 49.6 °F 89% 29.95 in 10.0 mi ESE 11.5 mph - N/A   Overcast
10:35 AM 54.3 °F - 50.9 °F 88% 29.94 in 10.0 mi SE 6.9 mph - N/A   Overcast
10:36 AM 54.5 °F - 51.1 °F 88% 29.94 in 10.0 mi ESE 8.1 mph - N/A   Overcast
10:55 AM 55.0 °F - 51.1 °F 86% 29.93 in 10.0 mi ESE 8.1 mph - N/A   Overcast
11:15 AM 56.3 °F - 52.0 °F 85% 29.93 in 10.0 mi SE 9.2 mph - N/A   Overcast
11:35 AM 57.2 °F - 52.7 °F 85% 29.92 in 10.0 mi SE 11.5 mph 16.1 mph N/A   Overcast
11:36 AM 57.2 °F - 52.7 °F 85% 29.92 in 10.0 mi SSE 9.2 mph 16.1 mph N/A   Overcast
11:55 AM 58.8 °F - 53.8 °F 83% 29.91 in 10.0 mi SE 8.1 mph - N/A   Overcast
11:56 AM 59.0 °F - 54.1 °F 84% 29.91 in 10.0 mi SSE 8.1 mph - N/A   Overcast
12:15 PM 60.6 °F - 55.0 °F 82% 29.92 in 10.0 mi ESE 10.4 mph - N/A   Mostly Cloudy
12:35 PM 60.8 °F - 55.2 °F 82% 29.91 in 10.0 mi ESE 9.2 mph - N/A   Mostly Cloudy
12:55 PM 62.6 °F - 56.3 °F 80% 29.91 in 10.0 mi SE 9.2 mph - N/A   Scattered Clouds
12:56 PM 63.0 °F - 56.5 °F 79% 29.91 in 7.0 mi SE 8.1 mph - N/A   Scattered Clouds
1:15 PM 64.6 °F - 57.0 °F 76% 29.91 in 10.0 mi SE 6.9 mph - N/A   Clear
1:16 PM 64.6 °F - 57.0 °F 76% 29.91 in 10.0 mi SE 6.9 mph - N/A   Clear
1:35 PM 66.2 °F - 58.3 °F 76% 29.90 in 7.0 mi SE 5.8 mph - N/A   Clear
1:36 PM 66.2 °F - 58.3 °F 76% 29.90 in 7.0 mi SE 6.9 mph - N/A   Clear
1:55 PM 67.5 °F - 58.6 °F 73% 29.90 in 10.0 mi SSE 6.9 mph - N/A   Clear
2:15 PM 69.8 °F - 59.9 °F 71% 29.91 in 10.0 mi South 8.1 mph - N/A   Clear
2:35 PM 71.2 °F - 60.6 °F 69% 29.89 in 10.0 mi South 8.1 mph - N/A   Clear
2:36 PM 71.2 °F - 60.4 °F 69% 29.89 in 10.0 mi South 8.1 mph - N/A   Clear
2:55 PM 72.7 °F - 61.2 °F 67% 29.88 in 10.0 mi South 9.2 mph - N/A   Clear
3:15 PM 73.6 °F - 61.3 °F 65% 29.87 in 10.0 mi SSE 6.9 mph - N/A   Clear
3:35 PM 74.7 °F - 62.4 °F 66% 29.86 in 10.0 mi SE 5.8 mph - N/A   Clear
3:36 PM 74.8 °F - 62.2 °F 65% 29.86 in 10.0 mi SSE 5.8 mph - N/A   Clear
3:55 PM 76.3 °F - 62.8 °F 63% 29.85 in 10.0 mi SE 8.1 mph - N/A   Clear
3:56 PM 76.3 °F - 62.6 °F 62% 29.85 in 10.0 mi SE 6.9 mph - N/A   Clear
4:15 PM 77.0 °F - 62.4 °F 61% 29.85 in 10.0 mi South 6.9 mph - N/A   Scattered Clouds
4:35 PM 77.7 °F - 63.1 °F 61% 29.83 in 10.0 mi SE 10.4 mph - N/A   Scattered Clouds
4:55 PM 78.1 °F - 63.1 °F 60% 29.83 in 10.0 mi South 10.4 mph - N/A   Clear
5:15 PM 78.6 °F - 63.5 °F 60% 29.83 in 10.0 mi SE 9.2 mph - N/A   Clear
5:16 PM 78.4 °F - 63.5 °F 60% 29.83 in 10.0 mi SSE 9.2 mph - N/A   Clear
5:35 PM 78.3 °F - 63.9 °F 61% 29.83 in 10.0 mi SSE 5.8 mph - N/A   Clear
5:55 PM 78.8 °F - 64.4 °F 61% 29.82 in 10.0 mi SSE 8.1 mph - N/A   Clear
6:15 PM 79.9 °F - 63.1 °F 56% 29.81 in 10.0 mi South 6.9 mph - N/A   Clear
6:16 PM 80.1 °F 81.5 °F 63.1 °F 56% 29.81 in 10.0 mi South 6.9 mph - N/A   Clear
6:35 PM 81.1 °F 80.9 °F 55.0 °F 41% 29.82 in 10.0 mi SW 12.7 mph 16.1 mph N/A   Clear
6:36 PM 81.1 °F 80.9 °F 55.0 °F 41% 29.82 in 10.0 mi SW 12.7 mph 16.1 mph N/A   Clear
6:55 PM 80.2 °F 80.2 °F 54.3 °F 41% 29.82 in 10.0 mi SSW 8.1 mph 16.1 mph N/A   Clear
7:15 PM 80.1 °F 80.1 °F 55.0 °F 42% 29.81 in 10.0 mi SSW 6.9 mph - N/A   Clear
7:35 PM 80.1 °F 80.2 °F 55.6 °F 43% 29.81 in 10.0 mi SSW 8.1 mph - N/A   Clear
7:36 PM 80.1 °F 80.2 °F 55.6 °F 43% 29.81 in 10.0 mi SSW 8.1 mph - N/A   Clear
7:55 PM 79.3 °F - 55.6 °F 44% 29.81 in 10.0 mi South 6.9 mph - N/A   Scattered Clouds
7:56 PM 79.3 °F - 55.6 °F 44% 29.81 in 10.0 mi South 6.9 mph - N/A   Scattered Clouds
8:15 PM 77.9 °F - 55.4 °F 46% 29.81 in 10.0 mi South 5.8 mph - N/A   Scattered Clouds
8:35 PM 76.1 °F - 55.6 °F 49% 29.79 in 10.0 mi South 4.6 mph - N/A   Clear
8:55 PM 74.8 °F - 55.4 °F 51% 29.81 in 10.0 mi West 11.5 mph 16.1 mph N/A   Clear
9:15 PM 71.6 °F - 58.1 °F 62% 29.81 in 10.0 mi WSW 4.6 mph - N/A   Clear
9:35 PM 70.5 °F - 58.3 °F 65% 29.81 in 10.0 mi Calm Calm - N/A   Clear
9:36 PM 70.5 °F - 58.3 °F 65% 29.81 in 10.0 mi Calm Calm - N/A   Clear
9:55 PM 69.6 °F - 58.5 °F 68% 29.79 in 10.0 mi South 3.5 mph - N/A   Clear
9:56 PM 69.6 °F - 58.5 °F 68% 29.79 in 10.0 mi South 3.5 mph - N/A   Clear
10:15 PM 68.0 °F - 58.3 °F 71% 29.80 in 10.0 mi SSE 4.6 mph - N/A   Clear
10:35 PM 65.5 °F - 58.5 °F 78% 29.80 in 10.0 mi SSE 5.8 mph - N/A   Clear
10:55 PM 65.7 °F - 58.3 °F 77% 29.81 in 10.0 mi SE 3.5 mph - N/A   Clear
10:56 PM 65.7 °F - 58.3 °F 77% 29.81 in 10.0 mi SE 3.5 mph - N/A   Clear
11:15 PM 63.5 °F - 58.3 °F 83% 29.82 in 10.0 mi SE 3.5 mph - N/A   Clear
11:16 PM 63.3 °F - 58.3 °F 84% 29.82 in 10.0 mi SE 3.5 mph - N/A   Clear
11:35 PM 62.8 °F - 58.3 °F 85% 29.82 in 10.0 mi SE 4.6 mph - N/A   Clear
11:55 PM 62.4 °F - 57.4 °F 84% 29.82 in 10.0 mi SE 4.6 mph - N/A   Clear